FW5156 Weather Reports


Display with metric or nautical units.
time (UTC)temp
F
wind
direction
speed
MPH
gust
MPH
rain 1hr
in
rain 24hr
in
rain mn
in
humidity
%
barometer
mb
20260507114517 39 0.0 0.0 0.00 0.00 0.00 86 1016.4
20260507113517 39 0.0 0.0 0.00 0.00 0.00 87 1016.5
20260507112517 38 0.0 0.0 0.00 0.00 0.00 87 1016.3
20260507111537 38 0.0 0.0 0.00 0.00 0.00 87 1016.0
20260507110517 38 0.0 0.0 0.00 0.00 0.00 87 1016.2
20260507105517 38 0.0 0.0 0.00 0.00 0.00 88 1016.3
20260507104517 38 0.0 0.0 0.00 0.00 0.00 88 1016.3
20260507103517 38 0.0 0.0 0.00 0.00 0.00 88 1016.3
20260507102517 38 0.0 0.0 0.00 0.00 0.00 89 1016.5
20260507101517 38 0.0 0.0 0.00 0.00 0.00 88 1016.5
20260507100517 38 0.0 0.0 0.00 0.00 0.00 88 1016.3
20260507095517 38 0.0 0.0 0.00 0.00 0.00 88 1016.3
20260507094517 38 0.0 0.0 0.00 0.00 0.00 88 1016.1
20260507093517 38 0.0 0.0 0.00 0.00 0.00 88 1016.2
20260507092517 39 0.0 0.0 0.00 0.00 0.00 88 1016.1
20260507091517 38 0.0 0.0 0.00 0.00 0.00 88 1016.0
20260507090517 39 0.0 0.0 0.00 0.00 0.00 88 1016.0
20260507085517 38 0.0 0.0 0.00 0.00 0.00 88 1016.1
20260507084517 39 0.0 0.0 0.00 0.00 0.00 88 1016.2
20260507083517 39 0.0 0.0 0.00 0.00 0.00 88 1016.1
20260507082517 39 0.0 0.0 0.00 0.00 0.00 89 1015.9
20260507081537 39 0.0 0.0 0.00 0.00 0.00 89 1015.9
20260507080517 39 0.0 0.0 0.00 0.00 0.00 89 1016.0
20260507075517 40 0.0 0.0 0.00 0.00 0.00 89 1015.8
20260507074517 40 0.0 0.0 0.00 0.00 0.00 89 1015.9
20260507073517 40 0.0 0.0 0.00 0.00 0.00 89 1015.8
20260507072517 40 0.0 0.0 0.00 0.00 0.00 89 1016.0
20260507071517 40 0.0 0.0 0.00 0.00 0.00 89 1016.0
20260507070517 40 0.0 0.0 0.00 0.01 0.00 90 1016.0
20260507065517 40 0.0 0.0 0.00 0.01 0.00 90 1016.1
20260507064517 41 0.0 0.0 0.00 0.01 0.00 91 1016.1
20260507063517 41 0.0 0.0 0.00 0.01 0.00 91 1016.2
20260507062517 41 0.0 0.0 0.00 0.01 0.00 91 1016.3
20260507061517 41 0.0 0.0 0.00 0.01 0.00 91 1016.3
20260507060517 41 0.0 0.0 0.00 0.01 0.00 91 1016.3
20260507055517 41 0.0 0.0 0.00 0.01 0.00 91 1016.3
20260507054517 41 0.0 0.0 0.00 0.01 0.00 91 1016.4
20260507053537 41 0.0 0.0 0.00 0.01 0.00 91 1016.4
20260507052517 41 0.0 0.0 0.00 0.01 0.00 91 1016.3
20260507051517 42 0.0 0.0 0.00 0.02 0.00 90 1016.1
20260507050517 42 0.0 0.0 0.00 0.02 0.00 91 1016.0
20260507045517 42 0.0 0.0 0.00 0.02 0.00 91 1015.9
20260507044517 42 0.0 0.0 0.00 0.02 0.00 90 1015.9
20260507043517 42 0.0 0.0 0.00 0.04 0.00 90 1016.0
20260507042517 43 0.0 0.0 0.00 0.04 0.00 89 1015.9
20260507041517 43 0.0 0.0 0.00 0.04 0.00 89 1015.8
20260507040557 43 0.0 0.0 0.00 0.05 0.00 88 1015.9
20260507035517 43 0.0 0.0 0.00 0.06 0.05 88 1015.8
20260507034517 44 0.0 0.0 0.00 0.07 0.05 88 1015.8
20260507034017 44 0.0 0.0 0.00 0.07 0.05 88 1015.8
20260507033017 44 0.0 0.0 0.00 0.08 0.05 88 1015.9
20260507032017 44 0.0 0.0 0.00 0.08 0.05 88 1015.8
20260507031037 44 0.0 0.0 0.00 0.09 0.05 87 1015.9
20260507030017 44 0.0 0.0 0.00 0.11 0.05 86 1015.8
20260507025017 45 0.0 0.0 0.00 0.12 0.05 87 1015.6
20260507024017 45 0.0 0.0 0.00 0.13 0.05 86 1015.6
20260507023017 45 0.0 0.0 0.00 0.13 0.05 86 1015.5
20260507022037 45 0.0 0.0 0.00 0.13 0.05 84 1015.5
20260507021017 46 0.0 0.0 0.00 0.13 0.05 84 1015.4
20260507020017 46 0.0 0.0 0.00 0.15 0.05 83 1015.3
20260507015017 46 0.0 0.0 0.00 0.20 0.05 82 1015.2
20260507014017 47 0.0 0.0 0.00 0.20 0.05 82 1015.2
20260507013017 47 0.0 0.0 0.00 0.20 0.05 82 1015.2
20260507012017 48 0.0 0.0 0.00 0.21 0.05 80 1015.2
20260507011017 49 0.0 0.0 0.00 0.21 0.05 78 1015.1
20260507010017 50 0.0 0.0 0.00 0.21 0.05 75 1014.9
20260507005037 51 0.0 0.0 0.00 0.22 0.05 72 1014.9
20260507004017 52 0.0 0.0 0.00 0.23 0.05 68 1014.9
20260507003017 53 0.0 0.0 0.00 0.24 0.05 64 1014.8
20260507002017 54 0.0 0.0 0.00 0.24 0.05 62 1014.7
20260507001017 54 0.0 0.0 0.00 0.25 0.05 64 1014.6
20260507000017 54 0.0 0.0 0.00 0.26 0.05 63 1014.5
20260506235017 54 0.0 0.0 0.00 0.26 0.05 64 1014.4
20260506234037 55 0.0 0.0 0.00 0.26 0.05 63 1014.4
20260506233017 55 0.0 0.0 0.00 0.26 0.05 66 1014.4
20260506232017 55 0.0 0.0 0.00 0.27 0.05 63 1014.6
20260506231057 55 0.0 0.0 0.00 0.27 0.05 60 1014.6
20260506230017 56 0.0 0.0 0.00 0.28 0.05 59 1014.5
20260506225017 57 0.0 0.0 0.00 0.29 0.05 57 1014.6
20260506224057 58 0.0 0.0 0.00 0.30 0.05 60 1014.8
20260506223017 58 0.0 0.0 0.00 0.31 0.05 57 1014.8
20260506222037 58 0.0 0.0 0.00 0.32 0.05 55 1014.7
20260506221017 57 0.0 0.0 0.00 0.34 0.05 59 1015.0
20260506220017 56 0.0 0.0 0.00 0.34 0.05 63 1015.0
20260506215017 55 0.0 2.0 0.00 0.35 0.05 61 1014.9
20260506214017 56 0.0 4.0 0.00 0.35 0.05 58 1015.0
20260506213017 57 0.0 0.0 0.00 0.35 0.05 56 1014.9
20260506212037 58 248 1.0 11.0 0.00 0.36 0.05 59 1014.8
20260506211017 59 0.0 1.0 0.00 0.36 0.05 61 1014.7
20260506210017 58 0.0 0.0 0.00 0.36 0.05 61 1014.6
20260506205017 57 0.0 0.0 0.00 0.36 0.05 63 1014.6
20260506204017 56 0.0 0.0 0.00 0.36 0.05 62 1014.6
20260506203017 55 0.0 0.0 0.00 0.36 0.05 67 1014.6
20260506202037 56 0.0 0.0 0.00 0.36 0.05 66 1014.5
20260506201017 56 0.0 0.0 0.00 0.36 0.05 64 1014.6
20260506200017 57 0.0 0.0 0.00 0.36 0.05 63 1014.7
20260506195017 57 0.0 0.0 0.00 0.36 0.05 64 1014.7
20260506194017 57 0.0 0.0 0.00 0.36 0.05 64 1014.7
20260506193017 56 0.0 0.0 0.00 0.36 0.05 66 1014.7
20260506192017 57 0.0 0.0 0.00 0.36 0.05 65 1014.9
20260506191037 56 0.0 0.0 0.00 0.36 0.05 65 1014.8
20260506190018 56 0.0 0.0 0.00 0.36 0.05 65 1014.6
20260506185037 55 0.0 1.0 0.00 0.37 0.05 66 1014.6
20260506184017 55 0.0 0.0 0.00 0.37 0.05 66 1014.7
20260506183017 55 0.0 0.0 0.00 0.38 0.05 69 1014.7
20260506182037 55 0.0 0.0 0.00 0.38 0.05 69 1014.5
20260506181037 55 0.0 0.0 0.00 0.38 0.05 68 1014.7
20260506180017 55 0.0 0.0 0.00 0.38 0.05 66 1014.6
20260506175017 54 0.0 0.0 0.00 0.39 0.05 64 1014.7
20260506174017 54 0.0 0.0 0.00 0.41 0.05 67 1014.8
20260506173017 54 0.0 0.0 0.00 0.42 0.05 63 1014.9
20260506172037 55 0.0 0.0 0.00 0.44 0.05 69 1015.0
20260506171037 55 0.0 0.0 0.00 0.46 0.05 65 1014.8
20260506170017 55 0.0 0.0 0.00 0.47 0.05 66 1014.8
20260506165017 55 0.0 0.0 0.00 0.48 0.05 68 1014.9
20260506164037 54 0.0 0.0 0.00 0.49 0.05 68 1014.9
20260506163017 54 0.0 0.0 0.00 0.49 0.05 71 1014.9
20260506162017 54 0.0 0.0 0.00 0.49 0.05 68 1014.6
20260506161057 54 0.0 0.0 0.00 0.49 0.05 71 1014.6
20260506160017 54 0.0 0.0 0.00 0.49 0.05 70 1014.5
20260506155017 54 0.0 0.0 0.00 0.49 0.05 75 1014.4
20260506154017 53 0.0 0.0 0.00 0.49 0.05 75 1014.5
20260506153017 53 0.0 0.0 0.00 0.49 0.05 75 1014.5
20260506152017 52 0.0 0.0 0.00 0.49 0.05 79 1014.4
20260506151057 52 0.0 0.0 0.00 0.49 0.05 84 1014.3
20260506150017 51 0.0 0.0 0.00 0.49 0.05 84 1014.2
20260506145037 51 0.0 0.0 0.00 0.49 0.05 86 1014.2
20260506144017 51 0.0 5.0 0.00 0.49 0.05 89 1014.1
20260506143017 50 0.0 0.0 0.00 0.49 0.05 90 1014.0
20260506142017 50 0.0 0.0 0.00 0.49 0.05 94 1013.8
20260506141017 50 0.0 0.0 0.00 0.49 0.05 95 1013.8
20260506140017 50 0.0 0.0 0.00 0.49 0.05 97 1013.7
20260506135017 49 0.0 0.0 0.00 0.49 0.05 97 1013.7
20260506134017 48 0.0 0.0 0.00 0.49 0.05 97 1013.4
20260506133017 48 0.0 0.0 0.00 0.49 0.05 97 1013.2
20260506132037 48 0.0 0.0 0.00 0.49 0.05 97 1013.0
20260506131017 47 0.0 0.0 0.00 0.49 0.05 97 1013.2
20260506130037 47 0.0 0.0 0.00 0.49 0.05 97 1013.3
20260506125017 46 0.0 0.0 0.00 0.49 0.05 97 1013.3
20260506124017 46 0.0 0.0 0.00 0.49 0.05 97 1013.2
20260506123017 46 0.0 0.0 0.00 0.49 0.05 97 1013.1
20260506122017 45 0.0 0.0 0.00 0.49 0.05 97 1013.0
20260506121037 45 0.0 0.0 0.00 0.49 0.05 97 1013.1
20260506120017 45 0.0 0.0 0.00 0.49 0.05 97 1012.6
20260506115037 45 0.0 0.0 0.00 0.49 0.05 97 1012.2